Regional Weather Roundup
Issued by NWS

Home | Current Version | Previous Version | Graphics & Text | Print | Product List | Glossary On
Versions: 1 2 3 4 5 6 7 8 9 10 11 12 13 14 15 16 17 18 19 20 21 22 23 24 25 26 27 28 29 30 31 32 33 34 35 36 37 38 39 40 41 42 43 44 45 46 47 48 49 50
000
ASUS43 KMPX 262301
RWRMN
WEATHER ROUNDUP FOR MINNESOTA
NATIONAL WEATHER SERVICE TWIN CITIES/CHANHASSEN MN
600 PM CDT FRI AUG 26 2016


NOTE: "FAIR" INDICATES FEW OR NO CLOUDS BELOW 12,000 FEET WITH NO
SIGNIFICANT WEATHER AND/OR OBSTRUCTIONS TO VISIBILITY. N/A MEANS
CURRENT SKY AND/OR WEATHER CONDITIONS ARE NOT AVAILABLE.

MNZ060>063-068>070-270000-
   Twin Cities Metro

CITY           SKY/WX    TMP DP  RH WIND       PRES   REMARKS
TWIN CITIES    CLOUDY    71  53  52 VRB5      30.14F
ST PAUL        CLOUDY    69  55  60 SE7       30.14F
CRYSTAL        CLOUDY    71  51  49 W5        30.12F
BLAINE         CLOUDY    72  55  56 SE7       30.14F
LAKEVILLE      CLOUDY    68  57  68 CALM      30.15F
EDEN PRAIRIE   CLOUDY    72  54  53 SW5       30.13F
LAKEVILLE      CLOUDY    68  57  68 CALM      30.15F
SOUTH ST PAUL  CLOUDY    70  54  56 SE3       30.14F
LAKE ELMO      FAIR      68  57  68 SE3       30.16S
$$
MNZ001>005-007-008-013>017-022>024-027-028-270000-
   Northwest Minnesota

CITY           SKY/WX    TMP DP  RH WIND       PRES   REMARKS
BEMIDJI        PTSUNNY   70  49  48 SW6       30.08S
HALLOCK        CLOUDY    75  48  38 SW13      29.98S
ROSEAU         CLOUDY    73  52  46 S5        30.01S
WARROAD        MOSUNNY   72  55  56 SW5       30.02S
THIEF RVR FALL MOSUNNY   72  51  47 SW8       30.04S
CROOKSTON      CLOUDY    73  54  49 SW13      30.04S
FOSSTON        CLOUDY    70  50  49 SW10      30.07S
DETROIT LAKES  CLOUDY    70  50  49 SW9       30.10F
MOORHEAD       MOSUNNY   70  54  56 SW8       30.07F
PARK RAPIDS    MOSUNNY   72  49  44 SW7       30.10S
MAHNOMEN       CLOUDY    69  53  54 SW8       30.08R
$$
MNZ006-009>011-018-025>026-270000-
   North Central Minnesota

CITY           SKY/WX    TMP DP  RH WIND       PRES   REMARKS
BAUDETTE       MOSUNNY   75  49  39 S3        30.03F
FLAG ISLAND    CLOUDY    72  55  56 S3        30.00S
INTL FALLS     SUNNY     73  50  44 SW5       30.05S
WASKISH        MOSUNNY   70  54  56 CALM      30.06S
BIG FORK       SUNNY     70  50  49 S6        30.09S
LONGVILLE      CLOUDY    72  50  46 S6        30.09F
GRAND RAPIDS   CLOUDY    72  48  42 S5        30.11F
CRANE LAKE     MOSUNNY   70  46  43 S2        30.09S
ORR            MOSUNNY   72  46  40 CALM      30.07S
COOK           MOSUNNY   72  48  43 SW6       30.10S
WALKER         FAIR      69  50  51 SW6       30.08S
$$
MNZ012-019>021-037-270000-
   Northeast Minnesota

CITY           SKY/WX    TMP DP  RH WIND       PRES   REMARKS
DULUTH         CLOUDY    70  53  54 S9        30.12S
ELY            PTSUNNY   70  48  46 S6        30.10S
HIBBING        CLOUDY    70  47  43 SW3       30.10F
EVELETH        CLOUDY    73  46  38 SW7       30.11F
DULUTH HARBOR  CLOUDY    75  54  46 SW10      30.11S
TWO HARBORS    CLOUDY    72  54  53 SE3       30.11S
SILVER BAY     CLOUDY    70  50  49 S5        30.11F
G MARAIS ARPRT MOSUNNY   59  48  67 S8        30.17S
$$
MNZ029>031-032-039>041-046>048-054>057-064-270000-
   West Central Minnesota

CITY           SKY/WX    TMP DP  RH WIND       PRES   REMARKS
FERGUS FALLS   LGT RAIN  68  54  60 S8        30.11F
WHEATON        CLOUDY    70  57  64 S6        30.12F
MORRIS         CLOUDY    72  54  53 S5        30.11F
ALEXANDRIA     MOSUNNY   69  51  52 SW10      30.14F
ELBOW LAKE     FAIR      69  54  58 S8        30.12S
WADENA         CLOUDY    72  52  49 SW6       30.10F
GLENWOOD       MOSUNNY   70  54  56 S7        30.14S
APPLETON       CLOUDY    72  55  56 SE3       30.11F
BENSON         CLOUDY    72  52  49 S6        30.12F
ORTONVILLE     PTSUNNY   70  55  60 SE3       30.11F
MADISON        MOSUNNY   70  55  60 SE6       30.11F
WILLMAR        FAIR      72  55  56 S3        30.14F
$$
MNZ033>034-036-042>043-049>051-058-059-270000-
   Central Minnesota

CITY           SKY/WX    TMP DP  RH WIND       PRES   REMARKS
ST CLOUD       PTSUNNY   71  54  54 SW8       30.12F
SAUK CENTRE    FAIR      69  54  57 S7        30.13S
PAYNESVILLE    MOSUNNY   70  53  54 S3        30.14S
AITKIN         CLOUDY    72  50  46 S7        30.10S
PINE RIVER     CLOUDY    72  52  49 SW7       30.13S
BRAINERD       CLOUDY    71  50  47 S9        30.11F
STAPLES        CLOUDY    72  48  43 S8        30.11S
LONG PRAIRIE   PTSUNNY   68  52  56 SE6       30.13S
LITTLE FALLS   MOSUNNY   72  50  46 SW6       30.13S
LITCHFIELD     PTSUNNY   72  55  56 CALM      30.14F
BUFFALO        PTSUNNY   70  53  54 SE5       30.15S
MAPLE LAKE     CLOUDY    71  58  63 S3        30.14F
HUTCHINSON     CLOUDY    69  58  66 SE5       30.15F
$$
MNZ037-044-045-052-053-270000-
   East Central Minnesota

CITY           SKY/WX    TMP DP  RH WIND       PRES   REMARKS
PRINCETON      CLOUDY    72  54  53 S5        30.13F
MORA           MOSUNNY   70  52  52 S7        30.14F
CAMBRIDGE      CLOUDY    73  55  53 S5        30.12F
RUSH CITY      PTSUNNY   70  56  61 SE5       30.14S
MOOSE LAKE     MOSUNNY   70  52  52 SW6       30.11S
HINCKLEY       CLOUDY    72  54  53 SW6       30.13F
CLOQUET        CLOUDY    70  50  49 S6        30.12S
MCGREGOR       CLOUDY    72  52  49 S7        30.12S
$$
MNZ071>073-080-081-089-090-097-098-270000-
   Southwest Minnesota

CITY           SKY/WX    TMP DP  RH WIND       PRES   REMARKS
MONTEVIDEO     PTSUNNY   72  55  56 S3        30.14F
GRANITE FALLS  MOSUNNY   72  57  60 SE5       30.14F
CANBY          CLOUDY    70  58  65 SE6       30.13S
MARSHALL       CLOUDY    70  56  61 S9        30.13S
REDWOOD FALLS  MOSUNNY   71  55  56 S7        30.13F
OLIVIA         MOSUNNY   70  54  56 S5        30.13S
WINDOM         CLOUDY    70  55  60 SE6       30.14F
WORTHINGTON    CLOUDY    68  59  73 MISG      30.14S
JACKSON          N/A     68  55  64 SE6       30.14F
TRACY          MOSUNNY   71  58  63 SE6       30.13F
SLAYTON        CLOUDY    68  59  73 SE6       30.14F
$$
MNZ065>067-074>077-082>085-091>093-270000-
   South Central Minnesota

CITY           SKY/WX    TMP DP  RH WIND       PRES   REMARKS
MANKATO        MOSUNNY   70  55  60 SE3       30.14F
NEW ULM          N/A     70  54  56 S3        30.13F
ST JAMES       CLOUDY    64  54  68 SE3       30.14F
FAIRMONT       CLOUDY    69  58  67 SE7       30.14F
GLENCOE        MOSUNNY   71  60  67 SE5       30.14F
FARIBAULT      CLOUDY    70  55  60 CALM      30.15F
OWATONNA       CLOUDY    70  55  60 CALM      30.15S
WASECA         MOSUNNY   68  57  68 SE3       30.16S
ALBERT LEA     MOSUNNY   70  57  64 CALM      30.15F
$$
MNZ078>079-086>088-094>096-270000-
   Southeast Minnesota

CITY           SKY/WX    TMP DP  RH WIND       PRES   REMARKS
ROCHESTER      MOSUNNY   70  57  63 SE3       30.16S
RED WING       CLOUDY    72  52  49 CALM      30.14S
DODGE CENTER   CLOUDY    72  55  56 CALM      30.16S
WINONA         CLOUDY    70  55  60 CALM      30.14S
AUSTIN         CLOUDY    70  55  60 CALM      30.15F
PRESTON        MOSUNNY   67  56  66 CALM      30.16S
$$
ABBREVIATIONS USED IN REMARKS
   TC - TEMPERATURES IN CELSIUS
  WCI - WIND CHILL INDEX
   HX - HEAT INDEX
  VSB - VISIBILITY
$$




USA.gov is the U.S. government's official web portal to all federal, state and local government web resources and services.